SL-14 DEB

Satellite information

Favourite Embed

Satellite Type and Status

DEBRISIN ORBIT

Key statistics

Satellite SL-14 DEB at a glance.

Uptime

12281

Days in orbit

Revolutions

≈ 12.7

Per day

Orbit

LEO

Low Earth Orbit

Inclination

82.7

Latest

Satellite identification and parameters

Extended collection of information and parameters for SL-14 DEB.

Object identification

Identified? True

Debris? True

Object name: SL-14 DEB

International designator: 1991-068N

Object number (NORAD): 26003

Object ID (CCSDS): 26003

Country: COMMONWEALTH OF INDEPENDENT STATES (CIS)

Current information (Y/N): Y

RCS size: SMALL

Orbital parameters

Period: 113.535 minutes

Inclination: 82.708 deg

SMA: 7766.899 km

Apoapsis: 1448.104 km

Periapsis: 1329.423 km

RAAN: 54.6385 deg

Eccentricy: 0.0076402

Argument of periapsis: 152.713 deg

Mean anomaly: 266.1041 deg

Mean motion: 12.68327221 rev/day

Mean motion (dot): 0.00001699 rev/day2

B* drag term: 0.0086004 1/REarth

Two-line elements (TLE)

Creation date: May 12, 2025, 10:46 p.m.

Reference frame: TEME

Reference center: EARTH

Epoch: May 12, 2025, 7:01 p.m. UTC

TLE line 0: 0 SL-14 DEB

TLE line 1: 1 26003U 91068N 25132.79272102 .00001699 00000-0 86004-2 0 9993

TLE line 2: 2 26003 82.7080 54.6385 0076402 152.7130 266.1041 12.68327221173912

Live tracking on map

Real-time ground track for satellite SL-14 DEB.

In-orbit conjunctions

A list of the most updated potential collisions computed for object SL-14 DEB.

Target Orbit TCA Probability of collision Miss distance Type
COSMOS 593 LEO 2024-09-10 03:31:41 0.0001132002 217.0 (m) PAYLOAD

Associated space launch

Second generation store-dump military communications satellite

SL-14 DEB was lifted into orbit during the mission ‘Tsiklon-3 | Strela-3 67 to 72’, on board a Tsiklon-3 space rocket.

The launch took place on Sept. 28, 1991, 7:05 a.m. from 32/2.

For more information about the launch, click the button.

Launch to space Tsiklon-3 | Strela-3 67 to 72
Tsiklon-3 | Strela-3 67 to 72

Agency: N/A

Status: Launch Successful

Launch date: Sept. 28, 1991, 7:05 a.m. UTC

Rocket: Tsiklon-3

Launch pad: 32/2

Location: Plesetsk Cosmodrome, Russian Federation

...

Latest news about this satellite

There are no fresh news available about this satellite. Check back as we update our databases every day.


Newsletter sign-up

Weekly statistics, charts and insights to help you stay on top of the space industry.